This is the latest recevied weather packets stored in our database for station/object KC5EZZ-2. If no packets are shown the sender has not sent any weather packets the latest 10 day(s).
| Time | Temp. | Humidity | Pressure | Rain* | Wind** | Luminosity | Snow |
|---|---|---|---|---|---|---|---|
| 1777863894 | 20° C | - | - | 0 mm | 2.68 m/s, 124° | - | - |
| 1777863595 | 20.56° C | - | - | 0 mm | 3.13 m/s, 134° | - | - |
| 1777863292 | 20.56° C | - | - | 0 mm | 3.13 m/s, 142° | - | - |
| 1777862992 | 20.56° C | - | - | 0 mm | 2.68 m/s, 155° | - | - |
| 1777862693 | 20.56° C | - | - | 0 mm | 2.68 m/s, 141° | - | - |
| 1777862390 | 21.11° C | - | - | 0 mm | 2.68 m/s, 166° | - | - |
| 1777862091 | 21.11° C | - | - | 0 mm | 3.13 m/s, 142° | - | - |
| 1777861791 | 21.11° C | - | - | 0 mm | 2.68 m/s, 129° | - | - |
| 1777861489 | 21.11° C | - | - | 0 mm | 3.13 m/s, 141° | - | - |
| 1777861189 | 21.11° C | - | - | 0 mm | 3.13 m/s, 145° | - | - |
| 1777860890 | 21.67° C | - | - | 0 mm | 3.58 m/s, 128° | - | - |
| 1777860587 | 21.67° C | - | - | 0 mm | 3.13 m/s, 134° | - | - |
| 1777860288 | 21.67° C | - | - | 0 mm | 3.13 m/s, 139° | - | - |
| 1777859988 | 21.67° C | - | - | 0 mm | 3.13 m/s, 153° | - | - |
| 1777859685 | 21.67° C | - | - | 0 mm | 3.13 m/s, 120° | - | - |
| 1777859386 | 21.67° C | - | - | 0 mm | 2.68 m/s, 145° | - | - |
| 1777859086 | 21.67° C | - | - | 0 mm | 2.68 m/s, 145° | - | - |
| 1777858784 | 22.22° C | - | - | 0 mm | 3.13 m/s, 159° | - | - |
| 1777858484 | 22.22° C | - | - | 0 mm | 3.13 m/s, 155° | - | - |
| 1777858185 | 22.22° C | - | - | 0 mm | 3.13 m/s, 153° | - | - |
| 1777857882 | 22.22° C | - | - | 0 mm | 3.13 m/s, 141° | - | - |
| 1777857583 | 22.22° C | - | - | 0 mm | 4.02 m/s, 145° | - | - |
| 1777856981 | 22.78° C | - | - | 0 mm | 3.13 m/s, 145° | - | - |
| 1777856681 | 22.78° C | - | - | 0 mm | 4.47 m/s, 173° | - | - |
| 1777856381 | 22.78° C | - | - | 0 mm | 4.47 m/s, 153° | - | - |
* Rain latest hour (hover to see other rain measurements)
** Current wind speed in m/s (hover to see current wind gust speed)